Terminal Aerodrome Forecast
Issued by NWS

Home | Current Version | Previous Version | Graphics & Text | Print | Product List | Glossary Off
Versions: 1 2 3 4 5 6 7 8 9 10 11 12 13 14 15 16 17 18 19 20 21 22 23 24 25 26 27 28 29 30 31 32 33 34 35 36 37 38 39 40 41 42 43 44 45 46 47 48 49 50

718
FTUS43 KDDC 200645 AAC
TAFHYS
TAF AMD
KHYS 200645Z 2007/2106 36014KT 2SM -SN BR BKN006 OVC010
     FM200900 36017G27KT 5SM BR OVC010
     FM201200 36017G27KT P6SM OVC030
     FM201500 35015G25KT P6SM BKN030
     FM201800 36012KT P6SM SKC=

USA.gov is the U.S. government's official web portal to all federal, state and local government web resources and services.